Home > Time Zones > World Clock > Weather > Germany > Ulm > Past weeks

Flag for Germany Weather past 2 weeks in Ulm, Baden-Württemberg, Germany

Now
73 °F

Passing clouds.


Feels Like: 77 °F
Forecast: 53 / 83 °F
Wind: 7 mph from East

Location: Laupheim Airport

Current Time: Aug 2, 2015 at 8:57:16 PM

Latest Report: Aug 2, 2015 at 8:20 PM


Visibility: N/A

Pressure: 30.09 "Hg

Humidity: 50%

Dew point: 54 °F

Location of UlmLocation

Historic Weather in Ulm — Graph

°F

Ulm temperature yesterday

Maximum temperature yesterday: 66 °F (at 4:20 PM)
Minimum temperature yesterday: 54 °F (at 5:20 AM)
Average temperature yesterday: 60 °F

Past Weeks' High & Low Weather Summary

 TemperatureHumidityPressure
High91 °F (Jul 22, 3:20 PM)100% (Jul 19, 5:01 AM)30.15 "Hg (Jul 19, 5:01 AM)
Low46 °F (Jul 30, 4:20 AM)32% (Jul 22, 3:20 PM)29.77 "Hg (Jul 24, 6:20 PM)
Average67 °F68%29.97 "Hg
* Reported Jul 18 7:20 PM — Aug 2 7:20 PM, Ulm, Weather by CustomWeather, © 2015

Note: Actual official high and low records may vary slightly from our data, if they occured in-between our weather recording intervals... More about our weather records

Advertising

Ulm weather history for previous 24 hours

 ConditionsComfort  
Time TempWeatherWind HumidityBarometerVisibility
7:20 PM
Sun, Aug 2
75 °FPassing clouds.10 mph47%30.09 "HgN/A
6:20 PM77 °FPassing clouds.5 mph39%30.09 "HgN/A
5:20 PM77 °FPassing clouds.8 mph39%30.09 "HgN/A
4:20 PM77 °FPassing clouds.10 mph36%30.09 "HgN/A
3:20 PM77 °FPassing clouds.8 mph36%30.12 "HgN/A
2:20 PM73 °FScattered clouds.6 mph44%30.12 "HgN/A
1:20 PM75 °FPassing clouds.3 mph41%30.12 "HgN/A
12:20 PM73 °FPassing clouds.7 mph50%30.15 "HgN/A
11:20 AM72 °FScattered clouds.2 mph53%30.15 "HgN/A
10:20 AM70 °FScattered clouds.2 mph64%30.15 "HgN/A
9:20 AM66 °FScattered clouds.2 mph73%30.12 "HgN/A
8:20 AM61 °FFog.5 mph94%30.12 "Hg6 mi
7:20 AM59 °FFog.2 mph94%30.12 "Hg6 mi
6:20 AM59 °FPassing clouds.2 mph94%30.09 "HgN/A
5:20 AM59 °FPassing clouds.2 mph94%30.09 "HgN/A
4:20 AM59 °FOvercast.3 mph94%30.09 "HgN/A
3:20 AM59 °FOvercast.2 mph94%30.09 "HgN/A
2:20 AM61 °FPassing clouds.3 mph94%30.07 "HgN/A
1:20 AM61 °FPassing clouds.5 mph88%30.07 "HgN/A
12:20 AM61 °FOvercast.5 mph94%30.07 "HgN/A
11:20 PM
Sat, Aug 1
63 °FMostly cloudy.3 mph88%30.07 "HgN/A
10:20 PM63 °FOvercast.2 mph88%30.07 "HgN/A
9:20 PM63 °FLight rain. Overcast.1 mph83%30.04 "HgN/A
8:20 PM64 °FOvercast.No wind78%30.01 "HgN/A
Weather by CustomWeather, © 2015

See weather overviewHow to use our weather pages